Location: Unspecified
(43.1763°N, 79.4719°W)
Time: 18:26:27
(UTC-04:00)

Resurs 1-4 Rocket - Visible Passes

Search period start: 25 June 2017 00:00
Search period end: 05 July 2017 00:00
Orbit: 801 x 813 km, 98.5° (Epoch: 25 June)

Date Brightness Start Highest point End Pass type
(mag) Time Alt. Az. Time Alt. Az. Time Alt. Az.
25 Jun 2.5 03:26:17 10° NNE 03:31:33 59° E 03:35:11 20° S visible
26 Jun 3.3 03:02:00 10° NNE 03:06:53 36° E 03:10:18 18° SSE visible
26 Jun 3.2 04:41:58 10° N 04:46:37 31° WNW 04:51:13 10° SW visible
27 Jun 4.0 02:38:03 10° NE 02:42:08 22° E 02:45:25 13° SE visible
27 Jun 2.5 04:17:05 10° N 04:22:13 50° WNW 04:26:30 15° SW visible
28 Jun 4.4 02:14:52 10° ENE 02:17:16 13° E 02:19:39 10° ESE visible
28 Jun 2.1 03:52:23 10° NNE 03:57:44 81° WNW 04:01:36 19° SSW visible
29 Jun 2.4 03:27:52 10° NNE 03:33:09 62° E 03:36:42 21° S visible
30 Jun 3.2 03:03:34 10° NNE 03:08:29 37° E 03:11:49 18° SSE visible
30 Jun 3.2 04:43:37 10° N 04:48:12 30° WNW 04:52:45 10° SW visible
01 Jul 3.9 02:39:35 10° NE 02:43:44 23° E 02:46:55 14° SE visible
01 Jul 2.6 04:18:42 10° N 04:23:48 48° WNW 04:28:00 15° SW visible
02 Jul 4.4 02:16:18 10° ENE 02:18:53 14° E 02:21:27 10° ESE visible
02 Jul 2.1 03:53:59 10° N 03:59:19 79° WNW 04:03:07 20° SSW visible
03 Jul 2.4 03:29:27 10° NNE 03:34:45 64° ESE 03:38:13 22° S visible
04 Jul 3.1 03:05:08 10° NNE 03:10:06 39° E 03:13:18 20° SSE visible
04 Jul 3.3 04:45:15 10° N 04:49:46 29° WNW 04:54:16 10° WSW visible
